Data supplied by UK-AIR on 13/6/2008
All Data GMT hour ending 
Status: R =Ratified P=Provisional,P*=As supplied
,,Rochester Stoke,,,,,,,,,,,,,,,,,,,,,,,
Date,time,"PM10 particulate matter (Hourly measured)",status,unit,"Nitric oxide",status,unit,"Nitrogen dioxide",status,unit,"Nitrogen oxides as nitrogen dioxide",status,unit,"Ozone",status,unit,"PM2.5 particulate matter (Hourly measured)",status,unit,"Sulphur dioxide",status,unit
 
01-01-1999,01:00,,,,,,,,,,,,,,,,,,,,,
01-01-1999,02:00,18,R,ugm-3 (GRAV EQ),7.6,R,ugm-3,38.2,R,ugm-3,49.9,R,ugm-3,20,R,ugm-3,10,P*,ugm-3 (TEOM),9.3,R,ugm-3
01-01-1999,03:00,18,R,ugm-3 (GRAV EQ),2.8,R,ugm-3,21.6,R,ugm-3,25.8,R,ugm-3,40,R,ugm-3,10,P*,ugm-3 (TEOM),6.9,R,ugm-3
01-01-1999,04:00,16,R,ugm-3 (GRAV EQ),0.6,R,ugm-3,16.8,R,ugm-3,17.8,R,ugm-3,40,R,ugm-3,8,P*,ugm-3 (TEOM),4.3,R,ugm-3
01-01-1999,05:00,16,R,ugm-3 (GRAV EQ),0.6,R,ugm-3,16.0,R,ugm-3,17.0,R,ugm-3,40,R,ugm-3,9,P*,ugm-3 (TEOM),4.8,R,ugm-3
01-01-1999,06:00,14,R,ugm-3 (GRAV EQ),0.6,R,ugm-3,13.6,R,ugm-3,14.5,R,ugm-3,42,R,ugm-3,7,P*,ugm-3 (TEOM),5.6,R,ugm-3
01-01-1999,07:00,13,R,ugm-3 (GRAV EQ),0.6,R,ugm-3,10.3,R,ugm-3,11.3,R,ugm-3,44,R,ugm-3,6,P*,ugm-3 (TEOM),5.6,R,ugm-3
01-01-1999,08:00,16,R,ugm-3 (GRAV EQ),0.6,R,ugm-3,10.3,R,ugm-3,11.3,R,ugm-3,46,R,ugm-3,8,P*,ugm-3 (TEOM),4.8,R,ugm-3
01-01-1999,09:00,17,R,ugm-3 (GRAV EQ),0.6,R,ugm-3,11.1,R,ugm-3,12.0,R,ugm-3,44,R,ugm-3,9,P*,ugm-3 (TEOM),6.4,R,ugm-3
01-01-1999,10:00,16,R,ugm-3 (GRAV EQ),1.1,R,ugm-3,12.0,R,ugm-3,13.8,R,ugm-3,42,R,ugm-3,9,P*,ugm-3 (TEOM),9.6,R,ugm-3
01-01-1999,11:00,16,R,ugm-3 (GRAV EQ),2.8,R,ugm-3,8.8,R,ugm-3,13.0,R,ugm-3,44,R,ugm-3,9,P*,ugm-3 (TEOM),9.6,R,ugm-3
01-01-1999,12:00,14,R,ugm-3 (GRAV EQ),1.1,R,ugm-3,9.6,R,ugm-3,11.3,R,ugm-3,56,R,ugm-3,8,P*,ugm-3 (TEOM),5.6,R,ugm-3
01-01-1999,13:00,12,R,ugm-3 (GRAV EQ),1.8,R,ugm-3,8.8,R,ugm-3,11.5,R,ugm-3,64,R,ugm-3,5,P*,ugm-3 (TEOM),3.5,R,ugm-3
01-01-1999,14:00,12,R,ugm-3 (GRAV EQ),1.8,R,ugm-3,12.0,R,ugm-3,14.7,R,ugm-3,66,R,ugm-3,5,P*,ugm-3 (TEOM),15.2,R,ugm-3
01-01-1999,15:00,12,R,ugm-3 (GRAV EQ),1.8,R,ugm-3,13.6,R,ugm-3,16.2,R,ugm-3,66,R,ugm-3,6,P*,ugm-3 (TEOM),13.8,R,ugm-3
01-01-1999,16:00,10,R,ugm-3 (GRAV EQ),2.8,R,ugm-3,20.8,R,ugm-3,25.0,R,ugm-3,52,R,ugm-3,4,P*,ugm-3 (TEOM),26.9,R,ugm-3
01-01-1999,17:00,12,R,ugm-3 (GRAV EQ),0.6,R,ugm-3,14.3,R,ugm-3,15.3,R,ugm-3,58,R,ugm-3,5,P*,ugm-3 (TEOM),2.7,R,ugm-3
01-01-1999,18:00,14,R,ugm-3 (GRAV EQ),0.6,R,ugm-3,10.3,R,ugm-3,11.3,R,ugm-3,60,R,ugm-3,7,P*,ugm-3 (TEOM),2.7,R,ugm-3
01-01-1999,19:00,17,R,ugm-3 (GRAV EQ),0.6,R,ugm-3,10.3,R,ugm-3,11.3,R,ugm-3,62,R,ugm-3,7,P*,ugm-3 (TEOM),2.7,R,ugm-3
01-01-1999,20:00,17,R,ugm-3 (GRAV EQ),0.6,R,ugm-3,10.3,R,ugm-3,11.3,R,ugm-3,64,R,ugm-3,9,P*,ugm-3 (TEOM),1.3,R,ugm-3
01-01-1999,21:00,16,R,ugm-3 (GRAV EQ),0.6,R,ugm-3,10.3,R,ugm-3,11.3,R,ugm-3,64,R,ugm-3,7,P*,ugm-3 (TEOM),2.7,R,ugm-3
01-01-1999,22:00,13,R,ugm-3 (GRAV EQ),0.6,R,ugm-3,10.3,R,ugm-3,11.3,R,ugm-3,64,R,ugm-3,6,P*,ugm-3 (TEOM),2.1,R,ugm-3
01-01-1999,23:00,13,R,ugm-3 (GRAV EQ),0.6,R,ugm-3,7.1,R,ugm-3,8.0,R,ugm-3,64,R,ugm-3,7,P*,ugm-3 (TEOM),2.1,R,ugm-3
01-01-1999,24:00,13,R,ugm-3 (GRAV EQ),0.6,R,ugm-3,4.6,R,ugm-3,5.5,R,ugm-3,66,R,ugm-3,6,P*,ugm-3 (TEOM),0.8,R,ugm-3
02-01-1999,01:00,10,R,ugm-3 (GRAV EQ),0.6,R,ugm-3,3.8,R,ugm-3,4.8,R,ugm-3,68,R,ugm-3,5,P*,ugm-3 (TEOM),0.8,R,ugm-3
02-01-1999,02:00,9,R,ugm-3 (GRAV EQ),0.6,R,ugm-3,7.1,R,ugm-3,8.0,R,ugm-3,70,R,ugm-3,4,P*,ugm-3 (TEOM),2.7,R,ugm-3
02-01-1999,03:00,9,R,ugm-3 (GRAV EQ),0.6,R,ugm-3,3.8,R,ugm-3,4.8,R,ugm-3,72,R,ugm-3,4,P*,ugm-3 (TEOM),4.8,R,ugm-3
02-01-1999,04:00,5,R,ugm-3 (GRAV EQ),0.6,R,ugm-3,3.1,R,ugm-3,4.0,R,ugm-3,80,R,ugm-3,2,P*,ugm-3 (TEOM),2.1,R,ugm-3
02-01-1999,05:00,5,R,ugm-3 (GRAV EQ),0.6,R,ugm-3,3.8,R,ugm-3,4.8,R,ugm-3,78,R,ugm-3,2,P*,ugm-3 (TEOM),1.3,R,ugm-3
02-01-1999,06:00,9,R,ugm-3 (GRAV EQ),0.6,R,ugm-3,3.8,R,ugm-3,4.8,R,ugm-3,78,R,ugm-3,4,P*,ugm-3 (TEOM),0.0,R,ugm-3
02-01-1999,07:00,14,R,ugm-3 (GRAV EQ),0.1,R,ugm-3,8.8,R,ugm-3,9.0,R,ugm-3,70,R,ugm-3,6,P*,ugm-3 (TEOM),18.6,R,ugm-3
02-01-1999,08:00,18,R,ugm-3 (GRAV EQ),0.6,R,ugm-3,12.8,R,ugm-3,13.8,R,ugm-3,68,R,ugm-3,7,P*,ugm-3 (TEOM),41.2,R,ugm-3
02-01-1999,09:00,13,R,ugm-3 (GRAV EQ),0.6,R,ugm-3,12.8,R,ugm-3,13.8,R,ugm-3,68,R,ugm-3,4,P*,ugm-3 (TEOM),13.0,R,ugm-3
02-01-1999,10:00,10,R,ugm-3 (GRAV EQ),0.6,R,ugm-3,12.0,R,ugm-3,13.0,R,ugm-3,68,R,ugm-3,6,P*,ugm-3 (TEOM),3.5,R,ugm-3
02-01-1999,11:00,14,R,ugm-3 (GRAV EQ),1.8,R,ugm-3,13.6,R,ugm-3,16.2,R,ugm-3,64,R,ugm-3,7,P*,ugm-3 (TEOM),3.5,R,ugm-3
02-01-1999,12:00,20,R,ugm-3 (GRAV EQ),1.8,R,ugm-3,11.1,R,ugm-3,13.8,R,ugm-3,68,R,ugm-3,7,P*,ugm-3 (TEOM),4.3,R,ugm-3
02-01-1999,13:00,12,R,ugm-3 (GRAV EQ),2.8,R,ugm-3,12.8,R,ugm-3,17.0,R,ugm-3,68,R,ugm-3,6,P*,ugm-3 (TEOM),1.3,R,ugm-3
02-01-1999,14:00,14,R,ugm-3 (GRAV EQ),2.8,R,ugm-3,10.3,R,ugm-3,14.5,R,ugm-3,70,R,ugm-3,6,P*,ugm-3 (TEOM),0.8,R,ugm-3
02-01-1999,15:00,10,R,ugm-3 (GRAV EQ),0.6,R,ugm-3,13.6,R,ugm-3,14.5,R,ugm-3,72,R,ugm-3,5,P*,ugm-3 (TEOM),0.8,R,ugm-3
02-01-1999,16:00,17,R,ugm-3 (GRAV EQ),0.6,R,ugm-3,12.4,R,ugm-3,13.4,R,ugm-3,72,R,ugm-3,6,P*,ugm-3 (TEOM),1.9,R,ugm-3
02-01-1999,17:00,21,R,ugm-3 (GRAV EQ),0.6,R,ugm-3,11.1,R,ugm-3,12.0,R,ugm-3,70,R,ugm-3,7,P*,ugm-3 (TEOM),0.0,R,ugm-3
02-01-1999,18:00,9,R,ugm-3 (GRAV EQ),0.6,R,ugm-3,14.3,R,ugm-3,15.3,R,ugm-3,68,R,ugm-3,4,P*,ugm-3 (TEOM),1.3,R,ugm-3
02-01-1999,19:00,8,R,ugm-3 (GRAV EQ),0.6,R,ugm-3,10.3,R,ugm-3,11.3,R,ugm-3,74,R,ugm-3,4,P*,ugm-3 (TEOM),2.7,R,ugm-3
02-01-1999,20:00,10,R,ugm-3 (GRAV EQ),0.6,R,ugm-3,13.6,R,ugm-3,14.5,R,ugm-3,68,R,ugm-3,5,P*,ugm-3 (TEOM),1.9,R,ugm-3
02-01-1999,21:00,13,R,ugm-3 (GRAV EQ),0.6,R,ugm-3,16.0,R,ugm-3,17.0,R,ugm-3,62,R,ugm-3,6,P*,ugm-3 (TEOM),4.3,R,ugm-3
02-01-1999,22:00,16,R,ugm-3 (GRAV EQ),0.6,R,ugm-3,29.6,R,ugm-3,30.6,R,ugm-3,46,R,ugm-3,7,P*,ugm-3 (TEOM),3.5,R,ugm-3
02-01-1999,23:00,14,R,ugm-3 (GRAV EQ),0.6,R,ugm-3,33.6,R,ugm-3,34.6,R,ugm-3,40,R,ugm-3,7,P*,ugm-3 (TEOM),2.7,R,ugm-3
02-01-1999,24:00,12,R,ugm-3 (GRAV EQ),0.6,R,ugm-3,26.5,R,ugm-3,27.5,R,ugm-3,48,R,ugm-3,6,P*,ugm-3 (TEOM),0.8,R,ugm-3
03-01-1999,01:00,10,R,ugm-3 (GRAV EQ),0.6,R,ugm-3,18.9,R,ugm-3,19.9,R,ugm-3,54,R,ugm-3,6,P*,ugm-3 (TEOM),1.9,R,ugm-3
03-01-1999,02:00,10,R,ugm-3 (GRAV EQ),0.6,R,ugm-3,31.9,R,ugm-3,32.9,R,ugm-3,44,R,ugm-3,6,P*,ugm-3 (TEOM),0.8,R,ugm-3
03-01-1999,03:00,13,R,ugm-3 (GRAV EQ),0.6,R,ugm-3,13.6,R,ugm-3,14.5,R,ugm-3,62,R,ugm-3,6,P*,ugm-3 (TEOM),3.5,R,ugm-3
03-01-1999,04:00,16,R,ugm-3 (GRAV EQ),0.6,R,ugm-3,7.8,R,ugm-3,8.8,R,ugm-3,68,R,ugm-3,6,P*,ugm-3 (TEOM),2.7,R,ugm-3
03-01-1999,05:00,18,R,ugm-3 (GRAV EQ),0.6,R,ugm-3,6.3,R,ugm-3,7.3,R,ugm-3,70,R,ugm-3,6,P*,ugm-3 (TEOM),3.5,R,ugm-3
03-01-1999,06:00,20,R,ugm-3 (GRAV EQ),0.1,R,ugm-3,4.6,R,ugm-3,4.8,R,ugm-3,76,R,ugm-3,5,P*,ugm-3 (TEOM),0.0,R,ugm-3
03-01-1999,07:00,14,R,ugm-3 (GRAV EQ),0.1,R,ugm-3,4.6,R,ugm-3,4.8,R,ugm-3,78,R,ugm-3,4,P*,ugm-3 (TEOM),0.0,R,ugm-3
03-01-1999,08:00,8,R,ugm-3 (GRAV EQ),0.6,R,ugm-3,3.8,R,ugm-3,4.8,R,ugm-3,78,R,ugm-3,1,P*,ugm-3 (TEOM),0.8,R,ugm-3
03-01-1999,09:00,8,R,ugm-3 (GRAV EQ),0.6,R,ugm-3,5.5,R,ugm-3,6.5,R,ugm-3,74,R,ugm-3,3,P*,ugm-3 (TEOM),5.6,R,ugm-3
03-01-1999,10:00,20,R,ugm-3 (GRAV EQ),0.6,R,ugm-3,12.0,R,ugm-3,13.0,R,ugm-3,74,R,ugm-3,8,P*,ugm-3 (TEOM),0.0,R,ugm-3
03-01-1999,11:00,34,R,ugm-3 (GRAV EQ),2.3,R,ugm-3,14.3,R,ugm-3,17.8,R,ugm-3,72,R,ugm-3,13,P*,ugm-3 (TEOM),2.7,R,ugm-3
03-01-1999,12:00,,,,,,,,,,,,,,,,,,,,,
03-01-1999,13:00,16,R,ugm-3 (GRAV EQ),0.6,R,ugm-3,15.3,R,ugm-3,16.2,R,ugm-3,66,R,ugm-3,10,P*,ugm-3 (TEOM),6.9,R,ugm-3
03-01-1999,14:00,10,R,ugm-3 (GRAV EQ),0.6,R,ugm-3,13.6,R,ugm-3,14.5,R,ugm-3,66,R,ugm-3,7,P*,ugm-3 (TEOM),16.5,R,ugm-3
03-01-1999,15:00,10,R,ugm-3 (GRAV EQ),1.1,R,ugm-3,14.3,R,ugm-3,16.0,R,ugm-3,66,R,ugm-3,7,P*,ugm-3 (TEOM),8.2,R,ugm-3
03-01-1999,16:00,8,R,ugm-3 (GRAV EQ),0.6,R,ugm-3,16.0,R,ugm-3,17.0,R,ugm-3,62,R,ugm-3,6,P*,ugm-3 (TEOM),4.8,R,ugm-3
03-01-1999,17:00,10,R,ugm-3 (GRAV EQ),0.6,R,ugm-3,37.8,R,ugm-3,38.8,R,ugm-3,38,R,ugm-3,8,P*,ugm-3 (TEOM),9.0,R,ugm-3
03-01-1999,18:00,13,R,ugm-3 (GRAV EQ),0.6,R,ugm-3,33.0,R,ugm-3,34.0,R,ugm-3,44,R,ugm-3,8,P*,ugm-3 (TEOM),2.7,R,ugm-3
03-01-1999,19:00,16,R,ugm-3 (GRAV EQ),0.6,R,ugm-3,45.1,R,ugm-3,46.0,R,ugm-3,32,R,ugm-3,8,P*,ugm-3 (TEOM),3.5,R,ugm-3
03-01-1999,20:00,20,R,ugm-3 (GRAV EQ),0.6,R,ugm-3,41.1,R,ugm-3,42.0,R,ugm-3,36,R,ugm-3,10,P*,ugm-3 (TEOM),4.8,R,ugm-3
03-01-1999,21:00,20,R,ugm-3 (GRAV EQ),0.6,R,ugm-3,33.0,R,ugm-3,34.0,R,ugm-3,42,R,ugm-3,8,P*,ugm-3 (TEOM),4.8,R,ugm-3
03-01-1999,22:00,14,R,ugm-3 (GRAV EQ),0.6,R,ugm-3,19.3,R,ugm-3,20.2,R,ugm-3,56,R,ugm-3,6,P*,ugm-3 (TEOM),4.8,R,ugm-3
03-01-1999,23:00,13,R,ugm-3 (GRAV EQ),0.6,R,ugm-3,8.8,R,ugm-3,9.7,R,ugm-3,66,R,ugm-3,5,P*,ugm-3 (TEOM),1.3,R,ugm-3
03-01-1999,24:00,13,R,ugm-3 (GRAV EQ),0.6,R,ugm-3,3.8,R,ugm-3,4.8,R,ugm-3,82,R,ugm-3,5,P*,ugm-3 (TEOM),0.0,R,ugm-3
04-01-1999,01:00,8,R,ugm-3 (GRAV EQ),0.6,R,ugm-3,3.8,R,ugm-3,4.8,R,ugm-3,78,R,ugm-3,3,P*,ugm-3 (TEOM),0.0,R,ugm-3
04-01-1999,02:00,8,R,ugm-3 (GRAV EQ),0.6,R,ugm-3,10.3,R,ugm-3,11.3,R,ugm-3,62,R,ugm-3,5,P*,ugm-3 (TEOM),0.0,R,ugm-3
04-01-1999,03:00,12,R,ugm-3 (GRAV EQ),0.6,R,ugm-3,8.8,R,ugm-3,9.7,R,ugm-3,62,R,ugm-3,5,P*,ugm-3 (TEOM),3.5,R,ugm-3
04-01-1999,04:00,8,R,ugm-3 (GRAV EQ),0.6,R,ugm-3,4.6,R,ugm-3,5.5,R,ugm-3,62,R,ugm-3,4,P*,ugm-3 (TEOM),1.3,R,ugm-3
04-01-1999,05:00,13,R,ugm-3 (GRAV EQ),0.6,R,ugm-3,4.6,R,ugm-3,5.5,R,ugm-3,60,R,ugm-3,6,P*,ugm-3 (TEOM),0.8,R,ugm-3
04-01-1999,06:00,9,R,ugm-3 (GRAV EQ),1.1,R,ugm-3,7.8,R,ugm-3,9.6,R,ugm-3,58,R,ugm-3,5,P*,ugm-3 (TEOM),1.3,R,ugm-3
04-01-1999,07:00,1,R,ugm-3 (GRAV EQ),0.6,R,ugm-3,10.3,R,ugm-3,11.3,R,ugm-3,56,R,ugm-3,2,P*,ugm-3 (TEOM),0.8,R,ugm-3
04-01-1999,08:00,13,R,ugm-3 (GRAV EQ),0.6,R,ugm-3,14.3,R,ugm-3,15.3,R,ugm-3,50,R,ugm-3,8,P*,ugm-3 (TEOM),0.0,R,ugm-3
04-01-1999,09:00,14,R,ugm-3 (GRAV EQ),0.6,R,ugm-3,10.3,R,ugm-3,11.3,R,ugm-3,54,R,ugm-3,8,P*,ugm-3 (TEOM),0.8,R,ugm-3
04-01-1999,10:00,14,R,ugm-3 (GRAV EQ),0.6,R,ugm-3,16.8,R,ugm-3,17.8,R,ugm-3,50,R,ugm-3,9,P*,ugm-3 (TEOM),0.0,R,ugm-3
04-01-1999,11:00,17,R,ugm-3 (GRAV EQ),2.3,R,ugm-3,15.3,R,ugm-3,18.7,R,ugm-3,52,R,ugm-3,10,P*,ugm-3 (TEOM),0.8,R,ugm-3
04-01-1999,12:00,17,R,ugm-3 (GRAV EQ),1.1,R,ugm-3,11.1,R,ugm-3,12.8,R,ugm-3,54,R,ugm-3,9,P*,ugm-3 (TEOM),2.7,R,ugm-3
04-01-1999,13:00,14,R,ugm-3 (GRAV EQ),3.3,R,ugm-3,19.3,R,ugm-3,24.3,R,ugm-3,50,R,ugm-3,8,P*,ugm-3 (TEOM),2.7,R,ugm-3
04-01-1999,14:00,16,R,ugm-3 (GRAV EQ),0.6,R,ugm-3,16.0,R,ugm-3,17.0,R,ugm-3,60,R,ugm-3,7,P*,ugm-3 (TEOM),2.7,R,ugm-3
04-01-1999,15:00,18,R,ugm-3 (GRAV EQ),0.6,R,ugm-3,16.8,R,ugm-3,17.8,R,ugm-3,58,R,ugm-3,10,P*,ugm-3 (TEOM),2.7,R,ugm-3
04-01-1999,16:00,21,R,ugm-3 (GRAV EQ),0.6,R,ugm-3,21.8,R,ugm-3,22.7,R,ugm-3,50,R,ugm-3,11,P*,ugm-3 (TEOM),5.6,R,ugm-3
04-01-1999,17:00,22,R,ugm-3 (GRAV EQ),0.6,R,ugm-3,29.8,R,ugm-3,30.8,R,ugm-3,42,R,ugm-3,11,P*,ugm-3 (TEOM),4.3,R,ugm-3
04-01-1999,18:00,31,R,ugm-3 (GRAV EQ),0.6,R,ugm-3,45.3,R,ugm-3,46.2,R,ugm-3,28,R,ugm-3,14,P*,ugm-3 (TEOM),4.3,R,ugm-3
04-01-1999,19:00,25,R,ugm-3 (GRAV EQ),0.6,R,ugm-3,35.5,R,ugm-3,36.5,R,ugm-3,36,R,ugm-3,11,P*,ugm-3 (TEOM),4.8,R,ugm-3
04-01-1999,20:00,21,R,ugm-3 (GRAV EQ),0.6,R,ugm-3,26.5,R,ugm-3,27.5,R,ugm-3,46,R,ugm-3,10,P*,ugm-3 (TEOM),4.3,R,ugm-3
04-01-1999,21:00,22,R,ugm-3 (GRAV EQ),0.6,R,ugm-3,21.8,R,ugm-3,22.7,R,ugm-3,54,R,ugm-3,8,P*,ugm-3 (TEOM),2.1,R,ugm-3
04-01-1999,22:00,18,R,ugm-3 (GRAV EQ),1.1,R,ugm-3,16.0,R,ugm-3,17.8,R,ugm-3,58,R,ugm-3,8,P*,ugm-3 (TEOM),3.5,R,ugm-3
04-01-1999,23:00,13,R,ugm-3 (GRAV EQ),0.6,R,ugm-3,11.1,R,ugm-3,12.0,R,ugm-3,64,R,ugm-3,6,P*,ugm-3 (TEOM),2.7,R,ugm-3
04-01-1999,24:00,5,R,ugm-3 (GRAV EQ),0.6,R,ugm-3,8.8,R,ugm-3,9.7,R,ugm-3,66,R,ugm-3,4,P*,ugm-3 (TEOM),3.5,R,ugm-3
05-01-1999,01:00,5,R,ugm-3 (GRAV EQ),0.6,R,ugm-3,12.4,R,ugm-3,13.4,R,ugm-3,52,R,ugm-3,4,P*,ugm-3 (TEOM),9.0,R,ugm-3
05-01-1999,02:00,9,R,ugm-3 (GRAV EQ),0.6,R,ugm-3,10.3,R,ugm-3,11.3,R,ugm-3,58,R,ugm-3,6,P*,ugm-3 (TEOM),1.9,R,ugm-3
05-01-1999,03:00,16,R,ugm-3 (GRAV EQ),0.6,R,ugm-3,3.8,R,ugm-3,4.8,R,ugm-3,62,R,ugm-3,8,P*,ugm-3 (TEOM),1.3,R,ugm-3
05-01-1999,04:00,13,R,ugm-3 (GRAV EQ),0.6,R,ugm-3,3.8,R,ugm-3,4.8,R,ugm-3,64,R,ugm-3,7,P*,ugm-3 (TEOM),1.3,R,ugm-3
05-01-1999,05:00,22,R,ugm-3 (GRAV EQ),0.6,R,ugm-3,5.5,R,ugm-3,6.5,R,ugm-3,62,R,ugm-3,11,P*,ugm-3 (TEOM),2.7,R,ugm-3
05-01-1999,06:00,25,R,ugm-3 (GRAV EQ),0.6,R,ugm-3,8.8,R,ugm-3,9.7,R,ugm-3,62,R,ugm-3,13,P*,ugm-3 (TEOM),2.7,R,ugm-3
05-01-1999,07:00,29,R,ugm-3 (GRAV EQ),0.6,R,ugm-3,10.3,R,ugm-3,11.3,R,ugm-3,56,R,ugm-3,14,P*,ugm-3 (TEOM),4.3,R,ugm-3
05-01-1999,08:00,25,R,ugm-3 (GRAV EQ),1.1,R,ugm-3,14.3,R,ugm-3,16.0,R,ugm-3,52,R,ugm-3,12,P*,ugm-3 (TEOM),4.3,R,ugm-3
05-01-1999,09:00,27,R,ugm-3 (GRAV EQ),1.1,R,ugm-3,25.8,R,ugm-3,27.5,R,ugm-3,42,R,ugm-3,13,P*,ugm-3 (TEOM),4.8,R,ugm-3
05-01-1999,10:00,25,R,ugm-3 (GRAV EQ),2.8,R,ugm-3,23.3,R,ugm-3,27.5,R,ugm-3,44,R,ugm-3,12,P*,ugm-3 (TEOM),4.3,R,ugm-3
05-01-1999,11:00,25,R,ugm-3 (GRAV EQ),4.9,R,ugm-3,17.6,R,ugm-3,25.0,R,ugm-3,44,R,ugm-3,13,P*,ugm-3 (TEOM),9.0,R,ugm-3
05-01-1999,12:00,23,R,ugm-3 (GRAV EQ),4.9,R,ugm-3,14.3,R,ugm-3,21.8,R,ugm-3,50,R,ugm-3,12,P*,ugm-3 (TEOM),5.6,R,ugm-3
05-01-1999,13:00,22,R,ugm-3 (GRAV EQ),4.4,R,ugm-3,12.0,R,ugm-3,18.7,R,ugm-3,54,R,ugm-3,12,P*,ugm-3 (TEOM),5.6,R,ugm-3
05-01-1999,14:00,20,R,ugm-3 (GRAV EQ),3.3,R,ugm-3,13.6,R,ugm-3,18.5,R,ugm-3,54,R,ugm-3,11,P*,ugm-3 (TEOM),5.6,R,ugm-3
05-01-1999,15:00,22,R,ugm-3 (GRAV EQ),2.3,R,ugm-3,14.3,R,ugm-3,17.8,R,ugm-3,54,R,ugm-3,11,P*,ugm-3 (TEOM),5.6,R,ugm-3
05-01-1999,16:00,22,R,ugm-3 (GRAV EQ),1.1,R,ugm-3,18.5,R,ugm-3,20.2,R,ugm-3,50,R,ugm-3,10,P*,ugm-3 (TEOM),5.6,R,ugm-3
05-01-1999,17:00,22,R,ugm-3 (GRAV EQ),0.6,R,ugm-3,33.0,R,ugm-3,34.0,R,ugm-3,38,R,ugm-3,11,P*,ugm-3 (TEOM),5.6,R,ugm-3
05-01-1999,18:00,23,R,ugm-3 (GRAV EQ),1.8,R,ugm-3,29.8,R,ugm-3,32.5,R,ugm-3,36,R,ugm-3,13,P*,ugm-3 (TEOM),9.0,R,ugm-3
05-01-1999,19:00,22,R,ugm-3 (GRAV EQ),0.6,R,ugm-3,36.3,R,ugm-3,37.2,R,ugm-3,34,R,ugm-3,13,P*,ugm-3 (TEOM),10.4,R,ugm-3
05-01-1999,20:00,25,R,ugm-3 (GRAV EQ),1.8,R,ugm-3,29.0,R,ugm-3,31.7,R,ugm-3,32,R,ugm-3,15,P*,ugm-3 (TEOM),5.6,R,ugm-3
05-01-1999,21:00,27,R,ugm-3 (GRAV EQ),3.3,R,ugm-3,29.8,R,ugm-3,34.8,R,ugm-3,22,R,ugm-3,16,P*,ugm-3 (TEOM),8.2,R,ugm-3
05-01-1999,22:00,23,R,ugm-3 (GRAV EQ),1.1,R,ugm-3,29.8,R,ugm-3,31.5,R,ugm-3,26,R,ugm-3,16,P*,ugm-3 (TEOM),9.0,R,ugm-3
05-01-1999,23:00,26,R,ugm-3 (GRAV EQ),0.6,R,ugm-3,29.8,R,ugm-3,30.8,R,ugm-3,30,R,ugm-3,15,P*,ugm-3 (TEOM),13.8,R,ugm-3
05-01-1999,24:00,27,R,ugm-3 (GRAV EQ),0.6,R,ugm-3,21.8,R,ugm-3,22.7,R,ugm-3,40,R,ugm-3,14,P*,ugm-3 (TEOM),11.7,R,ugm-3
06-01-1999,01:00,31,R,ugm-3 (GRAV EQ),0.6,R,ugm-3,17.0,R,ugm-3,18.0,R,ugm-3,44,R,ugm-3,14,P*,ugm-3 (TEOM),5.6,R,ugm-3
06-01-1999,02:00,33,R,ugm-3 (GRAV EQ),0.6,R,ugm-3,15.9,R,ugm-3,16.8,R,ugm-3,46,R,ugm-3,14,P*,ugm-3 (TEOM),6.4,R,ugm-3
06-01-1999,03:00,31,R,ugm-3 (GRAV EQ),0.6,R,ugm-3,11.3,R,ugm-3,12.2,R,ugm-3,46,R,ugm-3,13,P*,ugm-3 (TEOM),5.6,R,ugm-3
06-01-1999,04:00,34,R,ugm-3 (GRAV EQ),0.6,R,ugm-3,10.5,R,ugm-3,11.5,R,ugm-3,50,R,ugm-3,13,P*,ugm-3 (TEOM),5.6,R,ugm-3
06-01-1999,05:00,35,R,ugm-3 (GRAV EQ),0.6,R,ugm-3,11.3,R,ugm-3,12.2,R,ugm-3,50,R,ugm-3,13,P*,ugm-3 (TEOM),9.6,R,ugm-3
06-01-1999,06:00,27,R,ugm-3 (GRAV EQ),0.6,R,ugm-3,19.5,R,ugm-3,20.4,R,ugm-3,42,R,ugm-3,11,P*,ugm-3 (TEOM),5.6,R,ugm-3
06-01-1999,07:00,25,R,ugm-3 (GRAV EQ),2.3,R,ugm-3,25.2,R,ugm-3,28.7,R,ugm-3,36,R,ugm-3,12,P*,ugm-3 (TEOM),5.6,R,ugm-3
06-01-1999,08:00,25,R,ugm-3 (GRAV EQ),1.8,R,ugm-3,32.5,R,ugm-3,35.1,R,ugm-3,34,R,ugm-3,12,P*,ugm-3 (TEOM),9.6,R,ugm-3
06-01-1999,09:00,30,R,ugm-3 (GRAV EQ),1.1,R,ugm-3,29.2,R,ugm-3,30.9,R,ugm-3,38,R,ugm-3,12,P*,ugm-3 (TEOM),12.2,R,ugm-3
06-01-1999,10:00,38,R,ugm-3 (GRAV EQ),4.9,R,ugm-3,30.8,R,ugm-3,38.2,R,ugm-3,36,R,ugm-3,14,P*,ugm-3 (TEOM),17.3,R,ugm-3
06-01-1999,11:00,44,R,ugm-3 (GRAV EQ),4.9,R,ugm-3,26.0,R,ugm-3,33.4,R,ugm-3,42,R,ugm-3,15,P*,ugm-3 (TEOM),8.2,R,ugm-3
06-01-1999,12:00,46,R,ugm-3 (GRAV EQ),4.9,R,ugm-3,23.5,R,ugm-3,30.9,R,ugm-3,44,R,ugm-3,16,P*,ugm-3 (TEOM),5.6,R,ugm-3
06-01-1999,13:00,40,R,ugm-3 (GRAV EQ),4.9,R,ugm-3,22.0,R,ugm-3,29.4,R,ugm-3,44,R,ugm-3,16,P*,ugm-3 (TEOM),9.6,R,ugm-3
06-01-1999,14:00,39,R,ugm-3 (GRAV EQ),4.9,R,ugm-3,18.7,R,ugm-3,26.2,R,ugm-3,44,R,ugm-3,16,P*,ugm-3 (TEOM),5.6,R,ugm-3
06-01-1999,15:00,40,R,ugm-3 (GRAV EQ),4.9,R,ugm-3,22.7,R,ugm-3,30.2,R,ugm-3,44,R,ugm-3,16,P*,ugm-3 (TEOM),5.6,R,ugm-3
06-01-1999,16:00,39,R,ugm-3 (GRAV EQ),1.1,R,ugm-3,27.5,R,ugm-3,29.2,R,ugm-3,38,R,ugm-3,18,P*,ugm-3 (TEOM),5.6,R,ugm-3
06-01-1999,17:00,34,R,ugm-3 (GRAV EQ),0.6,R,ugm-3,36.5,R,ugm-3,37.4,R,ugm-3,32,R,ugm-3,16,P*,ugm-3 (TEOM),5.6,R,ugm-3
06-01-1999,18:00,30,R,ugm-3 (GRAV EQ),0.6,R,ugm-3,36.5,R,ugm-3,37.4,R,ugm-3,32,R,ugm-3,16,P*,ugm-3 (TEOM),5.6,R,ugm-3
06-01-1999,19:00,31,R,ugm-3 (GRAV EQ),0.6,R,ugm-3,32.5,R,ugm-3,33.4,R,ugm-3,36,R,ugm-3,16,P*,ugm-3 (TEOM),5.6,R,ugm-3
06-01-1999,20:00,34,R,ugm-3 (GRAV EQ),0.6,R,ugm-3,24.3,R,ugm-3,25.2,R,ugm-3,42,R,ugm-3,17,P*,ugm-3 (TEOM),5.6,R,ugm-3
06-01-1999,21:00,46,R,ugm-3 (GRAV EQ),0.6,R,ugm-3,17.0,R,ugm-3,18.0,R,ugm-3,48,R,ugm-3,20,P*,ugm-3 (TEOM),4.8,R,ugm-3
06-01-1999,22:00,35,R,ugm-3 (GRAV EQ),1.1,R,ugm-3,9.7,R,ugm-3,11.5,R,ugm-3,50,R,ugm-3,17,P*,ugm-3 (TEOM),3.5,R,ugm-3
06-01-1999,23:00,,,,0.6,R,ugm-3,20.2,R,ugm-3,21.2,R,ugm-3,42,R,ugm-3,9,P*,ugm-3 (TEOM),6.9,R,ugm-3
06-01-1999,24:00,,,,0.6,R,ugm-3,16.2,R,ugm-3,17.2,R,ugm-3,42,R,ugm-3,3,P*,ugm-3 (TEOM),16.5,R,ugm-3
07-01-1999,01:00,,,,0.6,R,ugm-3,14.9,R,ugm-3,15.9,R,ugm-3,48,R,ugm-3,4,P*,ugm-3 (TEOM),18.4,R,ugm-3
07-01-1999,02:00,,,,0.6,R,ugm-3,22.3,R,ugm-3,23.3,R,ugm-3,38,R,ugm-3,6,P*,ugm-3 (TEOM),28.5,R,ugm-3
07-01-1999,03:00,,,,0.6,R,ugm-3,27.5,R,ugm-3,28.5,R,ugm-3,30,R,ugm-3,5,P*,ugm-3 (TEOM),19.2,R,ugm-3
07-01-1999,04:00,,,,0.6,R,ugm-3,39.0,R,ugm-3,39.9,R,ugm-3,18,R,ugm-3,5,P*,ugm-3 (TEOM),5.6,R,ugm-3
07-01-1999,05:00,,,,0.6,R,ugm-3,25.2,R,ugm-3,26.2,R,ugm-3,38,R,ugm-3,3,P*,ugm-3 (TEOM),5.6,R,ugm-3
07-01-1999,06:00,,,,0.6,R,ugm-3,38.2,R,ugm-3,39.2,R,ugm-3,24,R,ugm-3,4,P*,ugm-3 (TEOM),3.5,R,ugm-3
07-01-1999,07:00,,,,1.8,R,ugm-3,39.7,R,ugm-3,42.4,R,ugm-3,26,R,ugm-3,5,P*,ugm-3 (TEOM),4.8,R,ugm-3
07-01-1999,08:00,,,,7.0,R,ugm-3,61.1,R,ugm-3,71.8,R,ugm-3,8,R,ugm-3,6,P*,ugm-3 (TEOM),2.7,R,ugm-3
07-01-1999,09:00,12,R,ugm-3 (GRAV EQ),17.8,R,ugm-3,66.7,R,ugm-3,93.8,R,ugm-3,6,R,ugm-3,8,P*,ugm-3 (TEOM),4.3,R,ugm-3
07-01-1999,10:00,12,R,ugm-3 (GRAV EQ),25.8,R,ugm-3,68.4,R,ugm-3,107.7,R,ugm-3,6,R,ugm-3,9,P*,ugm-3 (TEOM),2.7,R,ugm-3
07-01-1999,11:00,13,R,ugm-3 (GRAV EQ),25.5,R,ugm-3,67.0,R,ugm-3,106.0,R,ugm-3,10,R,ugm-3,10,P*,ugm-3 (TEOM),1.9,R,ugm-3
07-01-1999,12:00,12,R,ugm-3 (GRAV EQ),21.5,R,ugm-3,55.4,R,ugm-3,88.2,R,ugm-3,26,R,ugm-3,9,P*,ugm-3 (TEOM),4.8,R,ugm-3
07-01-1999,13:00,13,R,ugm-3 (GRAV EQ),14.0,R,ugm-3,58.6,R,ugm-3,80.0,R,ugm-3,22,R,ugm-3,8,P*,ugm-3 (TEOM),4.8,R,ugm-3
07-01-1999,14:00,13,R,ugm-3 (GRAV EQ),4.9,R,ugm-3,33.2,R,ugm-3,40.7,R,ugm-3,46,R,ugm-3,7,P*,ugm-3 (TEOM),9.0,R,ugm-3
07-01-1999,15:00,14,R,ugm-3 (GRAV EQ),3.3,R,ugm-3,35.7,R,ugm-3,40.7,R,ugm-3,42,R,ugm-3,7,P*,ugm-3 (TEOM),6.4,R,ugm-3
07-01-1999,16:00,12,R,ugm-3 (GRAV EQ),1.1,R,ugm-3,30.0,R,ugm-3,31.7,R,ugm-3,52,R,ugm-3,5,P*,ugm-3 (TEOM),2.7,R,ugm-3
07-01-1999,17:00,10,R,ugm-3 (GRAV EQ),0.6,R,ugm-3,26.0,R,ugm-3,26.9,R,ugm-3,58,R,ugm-3,4,P*,ugm-3 (TEOM),4.3,R,ugm-3
07-01-1999,18:00,5,R,ugm-3 (GRAV EQ),1.8,R,ugm-3,27.5,R,ugm-3,30.2,R,ugm-3,58,R,ugm-3,3,P*,ugm-3 (TEOM),16.5,R,ugm-3
07-01-1999,19:00,3,R,ugm-3 (GRAV EQ),0.6,R,ugm-3,14.5,R,ugm-3,15.5,R,ugm-3,74,R,ugm-3,2,P*,ugm-3 (TEOM),4.8,R,ugm-3
07-01-1999,20:00,7,R,ugm-3 (GRAV EQ),0.6,R,ugm-3,12.2,R,ugm-3,13.2,R,ugm-3,70,R,ugm-3,3,P*,ugm-3 (TEOM),4.8,R,ugm-3
07-01-1999,21:00,0,R,ugm-3 (GRAV EQ),0.6,R,ugm-3,16.2,R,ugm-3,17.2,R,ugm-3,66,R,ugm-3,3,P*,ugm-3 (TEOM),2.7,R,ugm-3
07-01-1999,22:00,0,R,ugm-3 (GRAV EQ),0.6,R,ugm-3,14.5,R,ugm-3,15.5,R,ugm-3,68,R,ugm-3,1,P*,ugm-3 (TEOM),0.8,R,ugm-3
07-01-1999,23:00,8,R,ugm-3 (GRAV EQ),0.6,R,ugm-3,29.2,R,ugm-3,30.2,R,ugm-3,50,R,ugm-3,5,P*,ugm-3 (TEOM),1.3,R,ugm-3
07-01-1999,24:00,8,R,ugm-3 (GRAV EQ),0.6,R,ugm-3,31.7,R,ugm-3,32.7,R,ugm-3,46,R,ugm-3,5,P*,ugm-3 (TEOM),2.1,R,ugm-3
08-01-1999,01:00,7,R,ugm-3 (GRAV EQ),0.6,R,ugm-3,17.0,R,ugm-3,18.0,R,ugm-3,56,R,ugm-3,5,P*,ugm-3 (TEOM),2.7,R,ugm-3
08-01-1999,02:00,5,R,ugm-3 (GRAV EQ),-0.1,R,ugm-3,18.1,R,ugm-3,18.0,R,ugm-3,58,R,ugm-3,5,P*,ugm-3 (TEOM),2.7,R,ugm-3
08-01-1999,03:00,5,R,ugm-3 (GRAV EQ),0.6,R,ugm-3,10.5,R,ugm-3,11.5,R,ugm-3,62,R,ugm-3,5,P*,ugm-3 (TEOM),0.8,R,ugm-3
08-01-1999,04:00,5,R,ugm-3 (GRAV EQ),0.6,R,ugm-3,10.5,R,ugm-3,11.5,R,ugm-3,60,R,ugm-3,4,P*,ugm-3 (TEOM),3.5,R,ugm-3
08-01-1999,05:00,7,R,ugm-3 (GRAV EQ),0.6,R,ugm-3,9.7,R,ugm-3,10.7,R,ugm-3,60,R,ugm-3,6,P*,ugm-3 (TEOM),3.5,R,ugm-3
08-01-1999,06:00,10,R,ugm-3 (GRAV EQ),0.6,R,ugm-3,10.5,R,ugm-3,11.5,R,ugm-3,58,R,ugm-3,6,P*,ugm-3 (TEOM),4.8,R,ugm-3
08-01-1999,07:00,12,R,ugm-3 (GRAV EQ),0.6,R,ugm-3,12.2,R,ugm-3,13.2,R,ugm-3,54,R,ugm-3,6,P*,ugm-3 (TEOM),3.5,R,ugm-3
08-01-1999,08:00,10,R,ugm-3 (GRAV EQ),0.6,R,ugm-3,16.2,R,ugm-3,17.2,R,ugm-3,48,R,ugm-3,6,P*,ugm-3 (TEOM),3.5,R,ugm-3
08-01-1999,09:00,8,R,ugm-3 (GRAV EQ),0.6,R,ugm-3,28.5,R,ugm-3,29.4,R,ugm-3,42,R,ugm-3,6,P*,ugm-3 (TEOM),1.3,R,ugm-3
08-01-1999,10:00,12,R,ugm-3 (GRAV EQ),4.9,R,ugm-3,31.7,R,ugm-3,39.2,R,ugm-3,38,R,ugm-3,8,P*,ugm-3 (TEOM),2.7,R,ugm-3
08-01-1999,11:00,17,R,ugm-3 (GRAV EQ),,,,,,,,,,,,,9,P*,ugm-3 (TEOM),,,
08-01-1999,12:00,14,R,ugm-3 (GRAV EQ),,,,,,,,,,,,,16,P*,ugm-3 (TEOM),,,
08-01-1999,13:00,13,R,ugm-3 (GRAV EQ),8.8,R,ugm-3,34.2,R,ugm-3,47.6,R,ugm-3,42,R,ugm-3,8,P*,ugm-3 (TEOM),5.6,R,ugm-3
08-01-1999,14:00,13,R,ugm-3 (GRAV EQ),3.9,R,ugm-3,17.8,R,ugm-3,23.7,R,ugm-3,56,R,ugm-3,6,P*,ugm-3 (TEOM),0.8,R,ugm-3
08-01-1999,15:00,13,R,ugm-3 (GRAV EQ),0.6,R,ugm-3,22.0,R,ugm-3,22.9,R,ugm-3,60,R,ugm-3,5,P*,ugm-3 (TEOM),2.1,R,ugm-3
08-01-1999,16:00,12,R,ugm-3 (GRAV EQ),0.6,R,ugm-3,19.5,R,ugm-3,20.4,R,ugm-3,58,R,ugm-3,6,P*,ugm-3 (TEOM),0.8,R,ugm-3
08-01-1999,17:00,9,R,ugm-3 (GRAV EQ),0.6,R,ugm-3,35.9,R,ugm-3,36.9,R,ugm-3,44,R,ugm-3,5,P*,ugm-3 (TEOM),3.5,R,ugm-3
08-01-1999,18:00,7,R,ugm-3 (GRAV EQ),1.1,R,ugm-3,33.2,R,ugm-3,35.0,R,ugm-3,44,R,ugm-3,6,P*,ugm-3 (TEOM),2.1,R,ugm-3
08-01-1999,19:00,12,R,ugm-3 (GRAV EQ),2.8,R,ugm-3,49.9,R,ugm-3,54.1,R,ugm-3,28,R,ugm-3,8,P*,ugm-3 (TEOM),4.3,R,ugm-3
08-01-1999,20:00,7,R,ugm-3 (GRAV EQ),0.6,R,ugm-3,22.7,R,ugm-3,23.7,R,ugm-3,56,R,ugm-3,5,P*,ugm-3 (TEOM),3.5,R,ugm-3
08-01-1999,21:00,9,R,ugm-3 (GRAV EQ),0.6,R,ugm-3,20.2,R,ugm-3,21.2,R,ugm-3,56,R,ugm-3,6,P*,ugm-3 (TEOM),3.5,R,ugm-3
08-01-1999,22:00,22,R,ugm-3 (GRAV EQ),1.1,R,ugm-3,50.4,R,ugm-3,52.1,R,ugm-3,10,R,ugm-3,14,P*,ugm-3 (TEOM),15.7,R,ugm-3
08-01-1999,23:00,16,R,ugm-3 (GRAV EQ),0.6,R,ugm-3,31.7,R,ugm-3,32.7,R,ugm-3,26,R,ugm-3,11,P*,ugm-3 (TEOM),6.1,R,ugm-3
08-01-1999,24:00,12,R,ugm-3 (GRAV EQ),0.6,R,ugm-3,18.7,R,ugm-3,19.7,R,ugm-3,38,R,ugm-3,9,P*,ugm-3 (TEOM),4.3,R,ugm-3
09-01-1999,01:00,10,R,ugm-3 (GRAV EQ),0.6,R,ugm-3,18.1,R,ugm-3,19.1,R,ugm-3,38,R,ugm-3,9,P*,ugm-3 (TEOM),3.7,R,ugm-3
09-01-1999,02:00,7,R,ugm-3 (GRAV EQ),0.6,R,ugm-3,12.6,R,ugm-3,13.6,R,ugm-3,48,R,ugm-3,5,P*,ugm-3 (TEOM),0.8,R,ugm-3
09-01-1999,03:00,9,R,ugm-3 (GRAV EQ),0.6,R,ugm-3,9.7,R,ugm-3,10.7,R,ugm-3,56,R,ugm-3,5,P*,ugm-3 (TEOM),0.8,R,ugm-3
09-01-1999,04:00,8,R,ugm-3 (GRAV EQ),0.6,R,ugm-3,9.7,R,ugm-3,10.7,R,ugm-3,56,R,ugm-3,5,P*,ugm-3 (TEOM),2.7,R,ugm-3
09-01-1999,05:00,8,R,ugm-3 (GRAV EQ),0.6,R,ugm-3,9.7,R,ugm-3,10.7,R,ugm-3,54,R,ugm-3,5,P*,ugm-3 (TEOM),4.3,R,ugm-3
09-01-1999,06:00,9,R,ugm-3 (GRAV EQ),0.6,R,ugm-3,10.5,R,ugm-3,11.5,R,ugm-3,52,R,ugm-3,5,P*,ugm-3 (TEOM),1.3,R,ugm-3
09-01-1999,07:00,9,R,ugm-3 (GRAV EQ),0.6,R,ugm-3,12.2,R,ugm-3,13.2,R,ugm-3,42,R,ugm-3,6,P*,ugm-3 (TEOM),4.8,R,ugm-3
09-01-1999,08:00,10,R,ugm-3 (GRAV EQ),0.6,R,ugm-3,17.0,R,ugm-3,18.0,R,ugm-3,38,R,ugm-3,7,P*,ugm-3 (TEOM),4.3,R,ugm-3
09-01-1999,09:00,10,R,ugm-3 (GRAV EQ),0.6,R,ugm-3,19.5,R,ugm-3,20.4,R,ugm-3,36,R,ugm-3,7,P*,ugm-3 (TEOM),5.6,R,ugm-3
09-01-1999,10:00,10,R,ugm-3 (GRAV EQ),0.6,R,ugm-3,17.8,R,ugm-3,18.7,R,ugm-3,44,R,ugm-3,8,P*,ugm-3 (TEOM),4.3,R,ugm-3
09-01-1999,11:00,9,R,ugm-3 (GRAV EQ),0.6,R,ugm-3,13.8,R,ugm-3,14.7,R,ugm-3,50,R,ugm-3,8,P*,ugm-3 (TEOM),5.6,R,ugm-3
09-01-1999,12:00,9,R,ugm-3 (GRAV EQ),3.4,R,ugm-3,14.5,R,ugm-3,19.7,R,ugm-3,50,R,ugm-3,9,P*,ugm-3 (TEOM),6.4,R,ugm-3
09-01-1999,13:00,9,R,ugm-3 (GRAV EQ),2.9,R,ugm-3,13.8,R,ugm-3,18.1,R,ugm-3,52,R,ugm-3,8,P*,ugm-3 (TEOM),4.8,R,ugm-3